FW6834 Weather Reports


Display with metric or nautical units.
time (UTC)temp
F
wind
direction
speed
MPH
gust
MPH
rain 1hr
in
rain 24hr
in
rain mn
in
humidity
%
barometer
mb
20260905172602 101 116 7.0 7.0 0.00 0.00 0.00 36 1054.9
20260905171102 101 117 6.0 7.0 0.00 0.00 0.00 36 1054.9
20260905164105 100 158 7.0 9.0 0.00 0.00 0.00 37 1055.2
20260905161102 98 138 0.0 8.0 0.00 0.00 0.00 39 1055.2
20260905155605 98 223 5.0 9.0 0.00 0.00 0.00 40 1054.9
20260905154102 96 212 5.0 7.0 0.00 0.00 0.00 42 1054.9
20260905151602 95 131 3.0 7.0 0.00 0.00 0.00 44 1054.9
20260905144602 93 202 3.0 7.0 0.00 0.00 0.00 46 1054.9
20260905143602 92 166 5.0 7.0 0.00 0.00 0.00 47 1054.9
20260905142103 89 214 4.0 8.0 0.00 0.00 0.00 50 1054.9
20260905141101 88 159 5.0 8.0 0.00 0.00 0.00 52 1054.9
20260905135602 87 147 5.0 9.0 0.00 0.00 0.00 54 1054.5
20260905134102 86 222 4.0 8.0 0.00 0.00 0.00 55 1054.5
20260905132603 84 171 4.0 6.0 0.00 0.00 0.00 58 1054.5
20260905131102 83 172 7.0 7.0 0.00 0.00 0.00 59 1054.5
20260905125603 82 184 3.0 5.0 0.00 0.00 0.00 62 1054.2
20260905124103 81 208 6.0 8.0 0.00 0.00 0.00 65 1054.2
20260905122602 80 245 6.0 6.0 0.00 0.00 0.00 64 1054.2
20260905121103 80 171 3.0 4.0 0.00 0.00 0.00 64 1054.2
20260905114602 80 155 4.0 7.0 0.00 0.00 0.00 63 1053.8
20260905113102 81 145 5.0 5.0 0.00 0.00 0.00 62 1053.5
20260905111603 81 184 2.0 5.0 0.00 0.00 0.00 61 1053.8
20260905110202 82 213 5.0 6.0 0.00 0.00 0.00 60 1053.8
20260905105102 82 213 4.0 7.0 0.00 0.00 0.00 60 1053.8
20260905102104 83 171 3.0 8.0 0.00 0.00 0.00 59 1053.5
20260905101103 83 194 6.0 7.0 0.00 0.00 0.00 58 1053.5
20260905095603 83 170 7.0 9.0 0.00 0.00 0.00 58 1053.8
20260905094103 84 184 7.0 8.0 0.00 0.00 0.00 57 1053.8
20260905092602 84 183 8.0 9.0 0.00 0.00 0.00 56 1053.8
20260905091103 85 96 6.0 8.0 0.00 0.00 0.00 55 1053.5
20260905085602 85 321 6.0 9.0 0.00 0.00 0.00 55 1053.5
20260905084103 85 154 3.0 10.0 0.00 0.00 0.00 55 1053.5
20260905082602 85 196 4.0 8.0 0.00 0.00 0.00 54 1053.5
20260905075602 86 249 3.0 6.0 0.00 0.00 0.00 54 1053.2
20260905074102 86 170 6.0 8.0 0.00 0.00 0.00 54 1053.2
20260905072603 86 199 7.0 8.0 0.00 0.00 0.00 53 1053.2
20260905071102 86 163 3.0 8.0 0.00 0.00 0.00 53 1053.2
20260905065602 86 198 5.0 6.0 0.00 0.00 0.00 54 1053.5
20260905064102 86 170 2.0 6.0 0.00 0.00 0.00 53 1053.5
20260905062603 86 178 3.0 6.0 0.00 0.00 0.00 53 1053.5
20260905055603 86 217 3.0 7.0 0.00 0.00 0.00 52 1053.5
20260905054102 87 143 4.0 8.0 0.00 0.00 0.00 51 1053.5
20260905051602 87 178 6.0 7.0 0.00 0.00 0.00 50 1053.5
20260905043102 88 148 6.0 10.0 0.00 0.00 0.00 49 1053.5
20260905041602 89 182 7.0 8.0 0.00 0.00 0.00 49 1053.5
20260905035101 90 150 5.0 11.0 0.00 0.00 0.00 48 1053.5
20260905033602 90 137 5.0 8.0 0.00 0.00 0.00 47 1053.5
20260905032602 90 195 6.0 7.0 0.00 0.00 0.00 47 1053.2
20260905031102 90 156 7.0 8.0 0.00 0.00 0.00 47 1052.8
20260905025603 90 175 3.0 7.0 0.00 0.00 0.00 47 1052.8
20260905024102 90 181 2.0 8.0 0.00 0.00 0.00 46 1052.5
20260905022602 91 139 4.0 7.0 0.00 0.00 0.00 45 1052.2
20260905021102 92 124 6.0 7.0 0.00 0.00 0.00 45 1052.2
20260905015602 92 144 6.0 6.0 0.00 0.00 0.00 44 1051.8
20260905014102 93 122 3.0 7.0 0.00 0.00 0.00 44 1051.5
20260905011102 94 121 6.0 7.0 0.00 0.00 0.00 42 1051.1
20260905002602 96 153 7.0 8.0 0.00 0.00 0.00 40 1051.1
20260905001103 97 261 4.0 11.0 0.00 0.00 0.00 39 1051.1
20260904231102 99 187 7.0 11.0 0.00 0.00 0.00 36 1050.8
20260904225602 99 145 7.0 11.0 0.00 0.00 0.00 37 1051.1
20260904224102 99 170 7.0 14.0 0.00 0.00 0.00 37 1050.8
20260904222602 99 195 9.0 10.0 0.00 0.00 0.00 37 1050.8
20260904221102 100 128 11.0 11.0 0.00 0.00 0.00 37 1051.1
20260904215602 99 137 3.0 8.0 0.00 0.00 0.00 38 1050.8
20260904214102 101 240 5.0 14.0 0.00 0.00 0.00 37 1051.1
20260904212602 101 233 7.0 11.0 0.00 0.00 0.00 36 1051.1
20260904211602 102 185 6.0 11.0 0.00 0.00 0.00 36 1051.1
20260904204602 104 144 7.0 10.0 0.00 0.00 0.00 33 1051.5
20260904203104 103 299 4.0 10.0 0.00 0.00 0.00 34 1051.8
20260904201602 102 186 10.0 15.0 0.00 0.00 0.00 33 1051.8
20260904194602 102 138 10.0 11.0 0.00 0.00 0.00 34 1052.2
20260904193602 102 202 5.0 8.0 0.00 0.00 0.00 34 1052.2
20260904192102 101 136 8.0 13.0 0.00 0.00 0.00 35 1052.2
20260904190602 101 183 8.0 15.0 0.00 0.00 0.00 35 1052.5
20260904185102 100 179 7.0 11.0 0.00 0.00 0.00 37 1052.8
20260904183602 98 137 9.0 14.0 0.00 0.00 0.00 38 1052.8
20260904182103 98 203 4.0 10.0 0.00 0.00 0.00 39 1053.2
20260904181102 98 203 14.0 14.0 0.00 0.00 0.00 40 1053.2
20260904175601 98 167 8.0 13.0 0.00 0.00 0.00 42 1053.5
20260904174102 97 199 10.0 10.0 0.00 0.00 0.00 43 1053.5